Flag for Switzerland Weather past 2 weeks in Regensdorf, Zurich, Switzerland

Now
33 °F

Light snow. Overcast.


Feels Like: 33 °F
Forecast: 25 / 38 °F
Wind: 2 mph from North

Location: Zurich-Kloten

Current Time: Feb 27, 2015 at 7:39:31 AM

Latest Report: Feb 27, 2015 at 7:00 AM


Visibility: 9 mi

Pressure: 29.89 "Hg

Humidity: 88%

Dew point: 29 °F

Location of RegensdorfLocation

Historic Weather in Regensdorf — Graph

°F

Regensdorf temperature yesterday

Maximum temperature yesterday: 46 °F (at 3:00 PM)
Minimum temperature yesterday: 24 °F (at 6:00 AM)
Average temperature yesterday: 34 °F

Past Weeks' High & Low Weather Summary

 TemperatureHumidityPressure
High52 °F (Feb 20, 3:00 PM)100% (Feb 12, 6:00 AM)30.76 "Hg (Feb 12, 6:00 AM)
Low23 °F (Feb 13, 9:00 AM)31% (Feb 20, 3:00 PM)29.59 "Hg (Feb 21, 11:00 AM)
Average33 °F84%30.10 "Hg
* Reported Feb 12 6:00 AM — Feb 27 6:00 AM, Regensdorf, Weather by CustomWeather, © 2015

Note: Actual official high and low records may vary slightly from our data, if they occured in-between our weather recording intervals... More about our weather records

Advertising

Regensdorf weather history for previous 24 hours

 ConditionsComfort  
Time TempWeatherWind HumidityBarometerVisibility
6:00 AM
Fri, Feb 27
33 °FChilly.3 mph82%29.88 "HgN/A
5:00 AM34 °FChilly.1 mph77%29.88 "HgN/A
3:00 AM34 °FChilly.1 mph73%29.93 "HgN/A
2:00 AM34 °FChilly.5 mph73%29.96 "HgN/A
1:00 AM32 °FOvercast.1 mph85%29.98 "Hg16 mi
12:00 AM33 °FChilly.2 mph77%29.99 "HgN/A
11:00 PM
Thu, Feb 26
34 °FChilly.1 mph72%30.01 "HgN/A
10:00 PM32 °FPassing clouds.2 mph79%30.03 "Hg16 mi
9:00 PM32 °FChilly.1 mph82%30.06 "HgN/A
8:00 PM34 °FChilly.5 mph76%30.06 "HgN/A
7:00 PM34 °FPassing clouds.3 mph72%30.07 "Hg22 mi
6:00 PM42 °FQuite cool.6 mph55%30.05 "HgN/A
5:00 PM44 °FQuite cool.5 mph49%30.05 "HgN/A
4:00 PM45 °FPassing clouds.3 mph49%30.06 "Hg19 mi
3:00 PM46 °FCool.6 mph49%30.08 "HgN/A
2:00 PM44 °FQuite cool.6 mph57%30.11 "HgN/A
1:00 PM42 °FSunny.3 mph61%30.14 "Hg19 mi
12:00 PM40 °FQuite cool.6 mph65%30.17 "HgN/A
11:00 AM37 °FChilly.2 mph59%30.20 "HgN/A
10:00 AM34 °FFog.1 mph76%30.22 "Hg7 mi
9:00 AM29 °FChilly.1 mph93%30.25 "HgN/A
8:00 AM26 °FChilly.1 mph95%30.27 "HgN/A
7:00 AM25 °FFog.2 mph95%30.27 "Hg6 mi
Weather by CustomWeather, © 2015

See weather overviewHow to use our weather pages